timestamp,surface_pressure_avg,surface_temp_avg,battery_voltage,lat,long
2021-01-17 00:09:01+00:00,289.0597,3.0,12.81,47.84626,-54.09684
2021-01-17 00:19:01+00:00,297.1097,3.0,12.81,47.84626,-54.09684
2021-01-17 00:29:01+00:00,298.8447,3.0,12.81,47.84626,-54.09684
2021-01-17 00:39:01+00:00,299.8196,3.0,12.81,47.84626,-54.09684
2021-01-17 00:49:01+00:00,305.2863,3.0,12.81,47.84626,-54.09684
2021-01-17 00:59:01+00:00,316.9164,3.0,12.81,47.84626,-54.09684
2021-01-17 01:09:01+00:00,313.9063,2.98,12.81,47.84626,-54.09684
2021-01-17 01:19:01+00:00,318.4214,2.95,12.73,47.84626,-54.09684
2021-01-17 01:29:01+00:00,334.4663,2.97,12.73,47.84626,-54.09684
2021-01-17 01:39:01+00:00,334.9197,2.93,12.73,47.84626,-54.09684
2021-01-17 01:49:01+00:00,327.0614,2.92,12.73,47.84626,-54.09684
2021-01-17 01:59:01+00:00,336.1046,2.91,12.73,47.84626,-54.09684
2021-01-17 02:09:01+00:00,343.61800000000005,2.9,12.73,47.84626,-54.09684
2021-01-17 02:19:01+00:00,339.5946,2.9,12.73,47.84626,-54.09684
2021-01-17 02:29:01+00:00,334.8346,2.9,12.73,47.84626,-54.09684
2021-01-17 02:39:01+00:00,350.0295,2.9,12.73,47.84626,-54.09684
2021-01-17 02:49:01+00:00,349.07300000000015,2.9,12.73,47.84626,-54.09684
2021-01-17 02:59:01+00:00,332.9729,2.9,12.73,47.84626,-54.09684
2021-01-17 03:09:01+00:00,330.5079,2.9,12.73,47.84626,-54.09684
2021-01-17 03:19:01+00:00,340.2947,2.9,12.73,47.84626,-54.09684
2021-01-17 03:29:01+00:00,339.1029,2.9,12.73,47.84626,-54.09684
2021-01-17 03:39:01+00:00,325.0996,2.9,12.73,47.84626,-54.09684
2021-01-17 03:49:01+00:00,316.458,2.9,12.73,47.84626,-54.09684
2021-01-17 03:59:01+00:00,321.353,2.9,12.73,47.84626,-54.09684
2021-01-17 04:09:01+00:00,311.9713,2.9,12.73,47.84626,-54.09684
2021-01-17 04:19:01+00:00,302.9447,2.9,12.73,47.84626,-54.09684
2021-01-17 04:29:01+00:00,307.6946,2.9,12.73,47.84626,-54.09684
2021-01-17 04:39:01+00:00,315.3331,2.9,12.73,47.84626,-54.09684
2021-01-17 04:49:01+00:00,308.9597,2.9,12.73,47.84626,-54.09684
2021-01-17 04:59:01+00:00,295.8514,2.9,12.73,47.84626,-54.09684
2021-01-17 05:09:01+00:00,286.9614,2.9,12.73,47.84626,-54.09684
2021-01-17 05:19:01+00:00,279.173,2.9,12.73,47.84626,-54.09684
2021-01-17 05:29:01+00:00,271.5181,2.9,12.73,47.84626,-54.09684
2021-01-17 05:39:01+00:00,265.6346,2.9,12.73,47.84626,-54.09684
2021-01-17 05:49:01+00:00,261.1314,2.9,12.73,47.84626,-54.09684
2021-01-17 05:59:01+00:00,256.1064,2.9,12.73,47.84626,-54.09684
2021-01-17 06:09:01+00:00,241.5265,2.9,12.73,47.84626,-54.09684
2021-01-17 06:19:01+00:00,233.6896,2.9,12.65,47.84626,-54.09684
2021-01-17 06:29:01+00:00,230.3731,2.9,12.65,47.84626,-54.09684
2021-01-17 06:39:01+00:00,216.5847,2.8,12.65,47.84626,-54.09684
2021-01-17 06:49:01+00:00,204.3231,2.8,12.65,47.84626,-54.09684
2021-01-17 06:59:01+00:00,202.4764,2.8,12.65,47.84626,-54.09684
2021-01-17 07:09:01+00:00,193.4098,2.81,12.65,47.84626,-54.09684
2021-01-17 07:19:01+00:00,183.1932,2.8,12.65,47.84626,-54.09684
2021-01-17 07:29:01+00:00,182.0565,2.8,12.65,47.84626,-54.09684
2021-01-17 07:39:01+00:00,186.8865,2.82,12.65,47.84626,-54.09684
2021-01-17 07:49:01+00:00,186.1448,2.86,12.65,47.84626,-54.09684
2021-01-17 07:59:01+00:00,178.0615,2.85,12.65,47.84626,-54.09684
2021-01-17 08:09:01+00:00,177.8982,2.8,12.65,47.84626,-54.09684
2021-01-17 08:19:01+00:00,185.2565,2.8,12.65,47.84626,-54.09684
2021-01-17 08:29:01+00:00,185.8381,2.8,12.65,47.84626,-54.09684
2021-01-17 08:39:01+00:00,184.9565,2.8,12.65,47.84626,-54.09684
2021-01-17 08:49:01+00:00,193.6015,2.84,12.65,47.84626,-54.09684
2021-01-17 08:59:01+00:00,207.1198,2.87,12.65,47.84626,-54.09684
2021-01-17 09:09:01+00:00,208.6348,2.89,12.65,47.84626,-54.09684
2021-01-17 09:19:01+00:00,207.3681,2.9,12.65,47.84626,-54.09684
2021-01-17 09:29:01+00:00,213.6597,2.9,12.65,47.84626,-54.09684
2021-01-17 09:39:01+00:00,215.4615,2.9,12.65,47.84626,-54.09684
2021-01-17 09:49:01+00:00,223.0598,2.9,12.65,47.84626,-54.09684
2021-01-17 09:59:01+00:00,238.5097,2.9,12.65,47.84626,-54.09684
2021-01-17 10:09:01+00:00,246.2647,2.9,12.65,47.84626,-54.09684
2021-01-17 10:19:01+00:00,242.3498,2.89,12.65,47.84626,-54.09684
2021-01-17 10:29:01+00:00,242.7447,2.89,12.65,47.84626,-54.09684
2021-01-17 10:39:01+00:00,247.4531,2.89,12.65,47.84626,-54.09684
2021-01-17 10:49:01+00:00,249.5314,2.89,12.65,47.84626,-54.09684
2021-01-17 10:59:01+00:00,246.5947,2.89,12.65,47.84626,-54.09684
2021-01-17 11:09:01+00:00,249.3931,2.89,12.65,47.84626,-54.09684
2021-01-17 11:19:01+00:00,251.9381,2.89,12.65,47.84626,-54.09684
2021-01-17 11:29:01+00:00,247.7364,2.9,12.65,47.84626,-54.09684
2021-01-17 11:39:01+00:00,246.9064,2.88,12.65,47.84626,-54.09684
2021-01-17 11:49:01+00:00,263.4464,2.88,12.65,47.84626,-54.09684
2021-01-17 11:59:01+00:00,274.3397,2.89,12.65,47.84626,-54.09684
2021-01-17 12:09:01+00:00,283.9997,2.87,12.65,47.84626,-54.09684
2021-01-17 12:19:01+00:00,294.1731,2.85,12.65,47.84626,-54.09684
2021-01-17 12:29:01+00:00,302.8463,2.85,12.65,47.84626,-54.09684
2021-01-17 12:39:01+00:00,300.89799999999997,2.84,12.65,47.84626,-54.09684
2021-01-17 12:49:01+00:00,312.343,2.86,12.65,47.84626,-54.09684
2021-01-17 12:59:01+00:00,320.6913,2.89,12.65,47.84626,-54.09684
2021-01-17 13:09:01+00:00,320.0596,2.89,12.65,47.84626,-54.09684
2021-01-17 13:19:01+00:00,318.823,2.89,12.65,47.84626,-54.09684
2021-01-17 13:29:01+00:00,333.8563,2.89,12.65,47.84626,-54.09684
2021-01-17 13:39:01+00:00,338.353,2.9,12.65,47.84626,-54.09684
2021-01-17 13:49:01+00:00,344.3729,2.89,12.65,47.84626,-54.09684
2021-01-17 13:59:01+00:00,354.5347,2.88,12.65,47.84626,-54.09684
2021-01-17 14:09:01+00:00,361.0645,2.86,12.65,47.84626,-54.09684
2021-01-17 14:19:01+00:00,356.42800000000005,2.81,12.73,47.84626,-54.09684
2021-01-17 14:29:01+00:00,347.2645,2.8,12.73,47.84626,-54.09684
2021-01-17 14:39:01+00:00,357.3896,2.84,12.73,47.84626,-54.09684
2021-01-17 14:49:01+00:00,375.4596,2.88,12.73,47.84626,-54.09684
2021-01-17 14:59:01+00:00,384.6728,2.9,12.73,47.84626,-54.09684
2021-01-17 15:09:01+00:00,380.4579,2.9,12.73,47.84626,-54.09684
2021-01-17 15:19:01+00:00,380.5095,2.86,12.65,47.84626,-54.09684
2021-01-17 15:29:01+00:00,375.8063,2.89,12.65,47.84626,-54.09684
2021-01-17 15:39:01+00:00,375.1663,2.9,12.65,47.84626,-54.09684
2021-01-17 15:49:01+00:00,374.4894,2.92,12.65,47.84626,-54.09684
2021-01-17 15:59:01+00:00,371.74300000000005,2.92,12.65,47.84626,-54.09684
2021-01-17 16:09:01+00:00,362.8346,2.9,12.65,47.84626,-54.09684
2021-01-17 16:19:01+00:00,358.4947,2.9,12.73,47.84626,-54.09684
2021-01-17 16:29:01+00:00,349.5812,2.9,12.73,47.84626,-54.09684
2021-01-17 16:39:01+00:00,344.8679,2.88,12.73,47.84626,-54.09684
2021-01-17 16:49:01+00:00,352.5845,2.89,12.73,47.84626,-54.09684
2021-01-17 16:59:01+00:00,346.75800000000015,2.88,12.73,47.84626,-54.09684
2021-01-17 17:09:01+00:00,320.1913,2.87,12.73,47.84626,-54.09684
2021-01-17 17:19:01+00:00,308.4214,2.88,12.73,47.84626,-54.09684
2021-01-17 17:29:01+00:00,299.2714,2.89,12.73,47.84626,-54.09684
2021-01-17 17:39:01+00:00,289.9963,2.89,12.73,47.84626,-54.09684
2021-01-17 17:49:01+00:00,274.1847,2.9,12.73,47.84626,-54.09684
2021-01-17 17:59:01+00:00,265.0497,2.9,12.73,47.84626,-54.09684
2021-01-17 18:09:01+00:00,273.5814,2.9,12.73,47.84626,-54.09684
2021-01-17 18:19:01+00:00,278.1747,2.9,12.65,47.84626,-54.09684
2021-01-17 18:29:01+00:00,262.2431,2.9,12.65,47.84626,-54.09684
2021-01-17 18:39:01+00:00,254.7181,2.9,12.65,47.84626,-54.09684
2021-01-17 18:49:01+00:00,254.35299999999998,2.9,12.65,47.84626,-54.09684
2021-01-17 18:59:01+00:00,248.4514,2.9,12.65,47.84626,-54.09684
2021-01-17 19:09:01+00:00,239.3098,2.9,12.65,47.84626,-54.09684
2021-01-17 19:19:01+00:00,229.1265,2.9,12.65,47.84626,-54.09684
2021-01-17 19:29:01+00:00,213.4664,2.9,12.65,47.84626,-54.09684
2021-01-17 19:39:01+00:00,216.3097,2.9,12.65,47.84626,-54.09684
2021-01-17 19:49:01+00:00,220.4897,2.9,12.65,47.84626,-54.09684
2021-01-17 19:59:01+00:00,204.7798,2.9,12.65,47.84626,-54.09684
2021-01-17 20:09:01+00:00,211.9548,2.9,12.65,47.84626,-54.09684
2021-01-17 20:19:01+00:00,224.9548,2.9,12.65,47.84626,-54.09684
2021-01-17 20:29:01+00:00,206.9698,2.9,12.65,47.84626,-54.09684
2021-01-17 20:39:01+00:00,204.7198,2.9,12.65,47.84626,-54.09684
2021-01-17 20:49:01+00:00,223.3665,2.9,12.65,47.84626,-54.09684
2021-01-17 20:59:01+00:00,219.9798,2.9,12.65,47.84626,-54.09684
2021-01-17 21:09:01+00:00,211.7081,2.9,12.65,47.84626,-54.09684
2021-01-17 21:19:01+00:00,220.4798,2.9,12.65,47.84626,-54.09684
2021-01-17 21:29:01+00:00,233.8815,2.9,12.65,47.84626,-54.09684
2021-01-17 21:39:01+00:00,225.2865,2.91,12.65,47.84626,-54.09684
2021-01-17 21:49:01+00:00,223.8181,2.92,12.65,47.84626,-54.09684
2021-01-17 21:59:01+00:00,234.3515,2.92,12.65,47.84626,-54.09684
2021-01-17 22:09:01+00:00,232.2481,2.95,12.65,47.84626,-54.09684
2021-01-17 22:19:01+00:00,230.2948,2.96,12.65,47.84626,-54.09684
2021-01-17 22:29:01+00:00,240.2198,2.96,12.65,47.84626,-54.09684
2021-01-17 22:39:01+00:00,255.9998,2.97,12.65,47.84626,-54.09684
2021-01-17 22:49:01+00:00,247.6814,2.99,12.65,47.84626,-54.09684
2021-01-17 22:59:01+00:00,241.683,2.98,12.65,47.84626,-54.09684
2021-01-17 23:09:01+00:00,255.3864,2.98,12.65,47.84626,-54.09684
2021-01-17 23:19:01+00:00,260.6614,2.99,12.65,47.84626,-54.09684
2021-01-17 23:29:01+00:00,245.5747,2.99,12.65,47.84626,-54.09684
2021-01-17 23:39:01+00:00,242.5064,2.99,12.65,47.84626,-54.09684
2021-01-17 23:49:01+00:00,259.2547,2.99,12.65,47.84626,-54.09684
2021-01-17 23:59:01+00:00,261.0081,3.0,12.65,47.84626,-54.09684
